DateTimeUTC,F1_A11,F1_S11,BsB_S11,BsG_S11,BsR_S11,BbsB_S11,BbsG_S11,BbsR_S11,BaB_A11,BaG_A11,BaR_A11,Tu_S11,T_S11,Uu_S11,U_S11,P_S11,T1_A11
2021-11-25T22:00:00Z,00000200,21000000,,,,,,,-000.16,-000.34,-000.45,18.5,25.6,,00.0,0647.2,30.8
2021-11-25T22:01:00Z,00000200,21000000,,,,,,,-000.28,0000.27,0000.31,18.6,25.6,,00.0,0647.2,30.8
2021-11-25T22:02:00Z,00000200,21000000,,,,,,,-000.07,-000.38,-000.15,18.6,25.6,,00.0,0647.2,30.9
2021-11-25T22:03:00Z,00000200,61000000,,,,,,,-000.08,0000.20,0000.01,18.6,25.6,,00.0,0647.2,30.9
2021-11-25T22:04:00Z,00000200,41000000,0000.18,0000.45,-000.04,-000.26,0000.05,-000.11,0000.29,-000.08,-000.14,19.0,25.6,,00.0,0648.1,30.9
2021-11-25T22:05:00Z,00000200,01000000,-000.20,0000.41,0000.31,0000.27,-000.07,0000.18,0000.07,0000.10,-000.01,19.1,25.6,,00.0,0648.1,30.8
2021-11-25T22:06:00Z,00000200,01000000,0001.12,0000.48,0000.43,-000.24,0000.27,0000.11,-000.47,-000.11,-000.37,19.1,25.6,,00.0,0648.1,30.9
2021-11-25T22:07:00Z,00000200,01000000,-000.31,0000.28,0000.19,0000.07,-000.06,-000.15,-000.29,-000.23,0000.28,19.1,25.6,,00.0,0648.1,30.9
2021-11-25T22:08:00Z,00000200,01000000,0000.41,0000.16,-000.02,0000.24,0000.19,-000.11,0000.11,-000.32,-000.33,19.1,25.6,,00.0,0648.1,30.9
2021-11-25T22:09:00Z,00000200,01000000,-000.10,0000.27,0000.21,0000.27,-000.01,0000.09,-000.10,0000.11,-000.32,19.0,25.6,,00.0,0648.1,30.8
2021-11-25T22:10:00Z,00000200,01000000,-000.47,0000.13,0000.29,0000.67,0000.06,-000.05,0000.21,0000.03,0000.20,18.9,25.5,,00.0,0648.1,30.8
2021-11-25T22:11:00Z,00000200,01000000,0000.28,0000.61,0000.38,0000.36,0000.05,0000.27,0000.13,-000.13,0000.04,18.9,25.5,,00.0,0648.1,30.8
2021-11-25T22:12:00Z,00000200,01000000,-000.03,0000.00,0000.04,0000.09,-000.03,-000.23,-000.18,-000.01,-000.19,18.9,25.5,,00.0,0648.1,30.8
2021-11-25T22:13:00Z,00000200,01000000,-000.01,0000.11,0000.05,-000.60,0000.13,-000.00,0000.10,0000.22,0000.25,18.9,25.5,,00.0,0648.1,30.9
2021-11-25T22:14:00Z,00000200,01000000,0000.16,0000.16,0000.09,0000.09,0000.14,0000.32,-000.02,0000.09,0000.08,19.0,25.5,,00.0,0648.1,30.9
2021-11-25T22:15:00Z,00000200,01000000,-000.09,0000.13,-000.06,0000.42,-000.02,-000.26,0000.13,-000.36,0000.05,19.0,25.5,,00.0,0648.0,30.9
2021-11-25T22:16:00Z,00000200,01000000,-000.06,-000.06,0000.22,0000.27,0000.03,-000.20,-000.10,0000.36,-000.26,19.1,25.5,,00.0,0648.1,30.9
2021-11-25T22:17:00Z,00000200,01000000,-000.20,0000.35,-000.08,0000.12,0000.12,0000.06,0000.14,-000.41,0000.11,19.1,25.6,,00.0,0648.2,30.9
2021-11-25T22:18:00Z,00000200,01000000,0000.37,0000.56,0000.22,0000.44,-000.04,0000.23,-000.13,0000.39,0000.00,19.2,25.6,,00.0,0648.2,30.9
2021-11-25T22:19:00Z,00000200,01000000,-000.35,0000.34,0000.42,-000.19,0000.08,0000.05,0000.08,-000.16,-000.15,19.2,25.6,,00.0,0648.3,30.9
2021-11-25T22:20:00Z,00000200,01000000,-000.39,0000.11,0000.22,0000.43,-000.12,-000.14,-000.38,-000.29,-000.09,19.3,25.6,,00.0,0648.3,30.9
2021-11-25T22:21:00Z,00000200,01000000,0000.56,0000.04,0000.03,0000.01,-000.02,0000.06,0000.32,0000.00,-000.19,19.2,25.7,,00.0,0648.3,30.9
2021-11-25T22:22:00Z,00000200,01000000,0000.15,0000.47,0000.10,0000.23,-000.27,-000.11,-000.42,-000.19,0000.02,19.2,25.6,,00.0,0648.3,30.9
2021-11-25T22:23:00Z,00000200,01000000,0000.23,0000.26,0000.00,0000.58,-000.23,-000.14,-000.00,0000.00,-000.34,19.1,25.6,,00.0,0648.3,30.9
2021-11-25T22:24:00Z,00000200,01000000,0000.17,0000.22,-000.05,0000.02,0000.14,0000.13,0000.04,-000.29,0000.29,19.0,25.5,,00.0,0648.3,30.8
2021-11-25T22:25:00Z,00000200,01000000,0000.31,0000.12,0000.06,-000.01,-000.17,-000.08,-000.12,0000.28,-000.06,18.9,25.5,,00.0,0648.3,30.8
2021-11-25T22:26:00Z,00000200,01000000,-000.58,0000.41,0000.13,0000.68,0000.06,-000.03,0000.32,0000.36,-000.17,18.9,25.5,,00.0,0648.3,30.8
2021-11-25T22:27:00Z,00000200,01000000,0000.25,0000.53,0000.23,0000.07,-000.16,-000.08,-000.09,-000.25,0000.21,18.9,25.5,,00.0,0648.3,30.8
2021-11-25T22:28:00Z,00000200,01000000,-000.23,0000.09,0000.11,0000.93,-000.05,0000.24,-000.05,0000.33,-000.35,18.9,25.5,,00.0,0648.4,30.8
2021-11-25T22:29:00Z,00000200,01000000,0000.11,0000.21,0000.11,0000.34,-000.25,0000.53,0000.18,-000.33,-000.00,19.0,25.5,,00.0,0648.4,30.8
2021-11-25T22:30:00Z,00000200,01000000,-000.28,0000.18,0000.33,0000.26,-000.21,0000.08,-000.04,0000.37,0000.44,19.0,25.5,,00.0,0648.4,30.8
2021-11-25T22:31:00Z,00000200,01000000,0000.13,0000.16,-000.03,0000.43,0000.04,0000.07,-000.02,-000.42,0000.07,19.0,25.5,,00.0,0648.5,30.9
2021-11-25T22:32:00Z,00000200,01000000,-000.29,0000.27,-000.09,-000.26,0000.38,-000.03,0000.10,0000.53,0000.06,19.1,25.5,,00.0,0648.5,30.9
2021-11-25T22:33:00Z,00000200,01000000,0000.08,0000.19,0000.17,0000.39,0000.02,0000.10,0000.12,0000.11,0000.28,19.1,25.5,,00.0,0648.5,30.9
2021-11-25T22:34:00Z,00000200,01000000,0000.22,0000.36,0000.33,0000.85,-000.20,0000.21,0000.20,-000.22,-000.30,19.1,25.6,,00.0,0648.6,30.9
2021-11-25T22:35:00Z,00000200,01000000,-000.56,0000.20,0000.43,0000.43,-000.08,0000.32,-000.22,-000.14,-000.42,19.2,25.6,,00.0,0648.6,30.9
2021-11-25T22:36:00Z,00000200,01000000,-000.04,0000.36,-000.09,0000.03,-000.18,-000.25,-000.02,-000.13,0000.31,19.1,25.6,,00.0,0648.6,30.9
2021-11-25T22:37:00Z,00000200,01000000,0000.16,0000.33,0000.15,0000.51,0000.09,0000.08,-000.22,0000.09,-000.49,19.1,25.6,,00.0,0648.6,30.9
2021-11-25T22:38:00Z,00000200,01000000,-000.48,0000.40,-000.07,-000.29,0000.01,-000.22,-000.14,-000.23,0000.17,19.0,25.5,,00.0,0648.6,30.8
2021-11-25T22:39:00Z,00000200,01000000,-000.66,0000.27,0000.27,-000.12,-000.20,-000.27,0000.08,0000.09,0000.04,18.9,25.5,,00.0,0648.6,30.8
2021-11-25T22:40:00Z,00000200,01000000,-000.09,0000.35,0000.60,0000.23,-000.26,0000.02,0000.47,0000.16,0000.37,18.8,25.4,,00.0,0648.6,30.8
2021-11-25T22:41:00Z,00000200,01000000,-000.39,0000.05,0000.07,0000.12,0000.24,-000.17,-000.01,0000.08,-000.29,18.8,25.4,,00.0,0648.6,30.8
2021-11-25T22:42:00Z,00000200,01000000,0000.33,0000.24,-000.12,0000.55,-000.06,-000.19,-000.19,0000.04,-000.02,18.8,25.4,,00.0,0648.6,30.8
2021-11-25T22:43:00Z,00000200,01000000,0000.03,0000.38,0000.18,-000.09,-000.15,-000.04,0000.20,0000.25,0000.20,18.8,25.4,,00.0,0648.7,30.8
2021-11-25T22:44:00Z,00000200,01000000,0000.23,0000.31,0000.32,0000.36,0000.26,-000.21,-000.01,-000.23,-000.05,18.8,25.4,,00.0,0648.7,30.8
2021-11-25T22:45:00Z,00000200,01000000,0000.09,0000.48,0000.16,0000.10,-000.26,-000.00,0000.21,0000.23,0000.20,18.8,25.4,,00.0,0648.7,30.8
2021-11-25T22:46:00Z,00000200,01000000,0000.61,0000.32,0000.15,0000.45,-000.02,-000.09,-000.04,-000.05,-000.26,18.9,25.5,,00.0,0648.7,30.8
2021-11-25T22:47:00Z,00000200,01000000,0000.23,0000.28,0000.28,0000.53,0000.04,-000.28,-000.02,0000.08,0000.18,18.9,25.5,,00.0,0648.7,30.9
2021-11-25T22:48:00Z,00000200,01000000,0000.78,0000.57,0000.31,0001.25,-000.01,-000.25,0000.18,0000.08,0000.05,19.0,25.5,,00.0,0648.7,30.9
2021-11-25T22:49:00Z,00000200,01000000,0000.84,0000.31,0000.10,0000.57,0000.20,-000.20,0000.13,-000.25,-000.37,19.0,25.5,,00.0,0648.7,30.9
2021-11-25T22:50:00Z,00000200,01000000,-000.43,0000.30,0000.07,0000.66,-000.15,0000.23,-000.14,0000.32,0000.08,19.1,25.5,,00.0,0648.7,30.9
2021-11-25T22:51:00Z,00000200,01000000,0000.18,0000.15,0000.20,0000.30,-000.35,0000.09,0000.29,-000.38,0000.26,19.1,25.5,,00.0,0648.7,30.9
2021-11-25T22:52:00Z,00000200,01000000,-000.66,0000.04,0000.55,0000.44,0000.03,-000.36,-000.38,-000.14,-000.31,19.1,25.6,,00.0,0648.7,30.9
2021-11-25T22:53:00Z,00000200,01000000,0000.60,0000.39,0000.31,0001.03,0000.40,0000.13,-000.06,0000.41,0000.10,19.0,25.6,,00.0,0648.7,30.9
2021-11-25T22:54:00Z,00000200,01000000,0000.20,0000.14,0000.26,0000.44,0000.18,0000.06,0000.23,-000.15,0000.19,19.0,25.5,,00.0,0648.7,30.8
2021-11-25T22:55:00Z,00000200,01000000,-000.59,0000.51,0000.45,0000.81,-000.17,0000.03,0000.26,0000.29,0000.05,18.9,25.5,,00.0,0648.8,30.8
2021-11-25T22:56:00Z,00000200,01000000,-000.23,0000.00,0000.35,-000.13,0000.03,0000.09,-000.04,0000.12,0000.17,18.8,25.5,,00.0,0648.8,30.8
2021-11-25T22:57:00Z,00000200,41000000,,,,,,,0001.15,0001.04,0001.02,18.9,25.5,,00.0,0648.8,30.8
2021-11-25T22:58:00Z,00000200,61000000,,,,,,,-000.15,-000.19,-000.48,18.5,25.6,,00.0,0647.9,30.8
2021-11-25T22:59:00Z,00000200,21000000,,,,,,,-000.72,-000.57,-000.24,18.5,25.7,,00.0,0648.0,30.8
